Weather History for Chippewa, MI

Change the Weather History Date:

Thursday, January 31, 2013

  Actual Average Record
Temperature  
Mean Temperature 8 °F -  
Max Temperature 14 °F 27 °F 37 °F (1983)
Min Temperature 3 °F 5 °F -15 °F (1980)
Degree Days  
Heating Degree Days 56    
Moisture  
Dew Point 5 °F    
Average Humidity 89    
Maximum Humidity 100    
Minimum Humidity 79    
Precipitation  
Precipitation 0.00 in - - ()
Sea Level Pressure  
Sea Level Pressure 29.49 in    
Wind  
Wind Speed 12 mph (NNW)    
Max Wind Speed 20 mph    
Max Gust Speed 26 mph    
Visibility 4 miles    
Events      
Averages and records for this station are not official NWS values.
T = Trace of Precipitation, MM = Missing Value Source: NWS Daily Summary

Daily Weather History Graph

Daily Weather History Graph

Search for Another Location

Airport:

Trip Planner

Search our weather history database for the weather conditions in past years. The results will help you decide how hot, cold, wet, or windy it might be!

Date:

Astronomy

Jan. 31, 2013 Rise Set
Actual Time 8:01 AM EST 5:41 PM EST
Civil Twilight 7:29 AM EST 6:13 PM EST
Nautical Twilight 6:53 AM EST 6:49 PM EST
Astronomical Twilight 6:18 AM EST 7:25 PM EST
Moon 11:04 PM EST (1/31) 9:41 AM EST (1/31)
Length of Visible Light 10h 44m
Length of Day
9h 39m
Waning Gibbous, 80% of the Moon is Illuminated
Jan 31
Waning Gibbous
Feb 3
Last Quarter
Feb 10
New
Feb 17
First Quarter
Feb 25
Full

Hourly Weather History & Observations

Time (EST) Temp. Windchill Dew Point Humidity Pressure Visibility Wind Dir Wind Speed Gust Speed Precip Events Conditions
12:15 AM 10.4 °F -6.0 °F 8.6 °F 92% 29.15 in 5.0 mi NNW 15.0 mph 20.7 mph N/A   Overcast
12:35 AM 10.4 °F -6.0 °F 6.8 °F 85% 29.17 in 7.0 mi NNW 15.0 mph 26.5 mph N/A   Overcast
12:55 AM 8.6 °F -9.5 °F 6.8 °F 92% 29.18 in 5.0 mi NNW 17.3 mph 26.5 mph N/A   Overcast
1:15 AM 8.6 °F -8.9 °F 5.0 °F 85% 29.19 in 9.0 mi NNW 16.1 mph 26.5 mph N/A   Overcast
1:35 AM 8.6 °F -8.3 °F 5.0 °F 85% 29.20 in 5.0 mi NNW 15.0 mph - N/A   Overcast
1:55 AM 6.8 °F -12.4 °F 3.2 °F 85% 29.21 in 5.0 mi NNW 18.4 mph 24.2 mph N/A   Overcast
2:15 AM 6.8 °F -12.9 °F 1.4 °F 79% 29.23 in 5.0 mi NNW 19.6 mph 25.3 mph N/A   Overcast
2:35 AM 5.0 °F -11.6 °F 1.4 °F 85% 29.25 in 10.0 mi NNW 12.7 mph 21.9 mph N/A   Overcast
2:55 AM 5.0 °F -13.0 °F 1.4 °F 85% 29.26 in 9.0 mi NNW 15.0 mph - N/A   Overcast
3:15 AM 3.2 °F -14.6 °F 1.4 °F 92% 29.26 in 10.0 mi NNW 13.8 mph - N/A   Overcast
3:35 AM 3.2 °F -13.9 °F -0.4 °F 85% 29.26 in 10.0 mi NNW 12.7 mph 24.2 mph N/A   Overcast
3:55 AM 3.2 °F -13.9 °F -0.4 °F 85% 29.27 in 10.0 mi NNW 12.7 mph - N/A   Overcast
4:15 AM 3.2 °F -13.1 °F -0.4 °F 85% 29.27 in 10.0 mi NNW 11.5 mph - N/A   Overcast
4:35 AM 3.2 °F -10.3 °F -0.4 °F 85% 29.29 in 5.0 mi NNW 8.1 mph - N/A   Mostly Cloudy
4:55 AM 3.2 °F -11.3 °F 1.4 °F 92% 29.29 in 1.2 mi North 9.2 mph - N/A   Overcast
5:15 AM 3.2 °F -9.1 °F 1.4 °F 92% 29.30 in 1.8 mi NNW 6.9 mph - N/A   Overcast
5:35 AM 3.2 °F -7.8 °F 1.4 °F 92% 29.31 in 4.0 mi North 5.8 mph - N/A   Overcast
5:55 AM 5.0 °F -6.9 °F 3.2 °F 92% 29.33 in 3.0 mi NNW 6.9 mph - N/A   Overcast
6:15 AM 5.0 °F -6.9 °F 3.2 °F 92% 29.34 in 2.0 mi NNW 6.9 mph - N/A   Overcast
6:35 AM 5.0 °F -10.8 °F 3.2 °F 92% 29.34 in 2.0 mi NNW 11.5 mph - N/A   Overcast
6:55 AM 5.0 °F -11.6 °F 3.2 °F 92% 29.36 in 2.5 mi NNW 12.7 mph - N/A   Overcast
7:15 AM 3.2 °F -9.1 °F 1.4 °F 92% 29.37 in 4.0 mi NNW 6.9 mph - N/A   Overcast
7:35 AM 3.2 °F -9.1 °F 1.4 °F 92% 29.39 in 5.0 mi North 6.9 mph - N/A   Overcast
7:55 AM 3.2 °F -9.1 °F 1.4 °F 92% 29.40 in 2.0 mi North 6.9 mph - N/A   Overcast
8:15 AM 3.2 °F -10.3 °F 1.4 °F 92% 29.42 in 2.5 mi North 8.1 mph - N/A   Overcast
8:35 AM 3.2 °F -7.8 °F 1.4 °F 92% 29.43 in 4.0 mi North 5.8 mph - N/A   Overcast
8:55 AM 3.2 °F -13.1 °F 1.4 °F 92% 29.44 in 2.0 mi NNW 11.5 mph - N/A   Overcast
9:15 AM 5.0 °F -8.1 °F 1.4 °F 85% 29.45 in 1.5 mi NNW 8.1 mph - N/A   Overcast
9:35 AM 5.0 °F -8.1 °F 1.4 °F 85% 29.46 in 1.2 mi NNW 8.1 mph - N/A   Overcast
9:55 AM 6.8 °F -7.8 °F 3.2 °F 85% 29.46 in 1.0 mi NNW 10.4 mph - N/A   Overcast
10:15 AM 6.8 °F -5.9 °F 3.2 °F 85% 29.47 in 1.8 mi NNW 8.1 mph - N/A   Overcast
10:35 AM 8.6 °F -2.6 °F 3.2 °F 79% 29.48 in 1.2 mi NNW 6.9 mph - N/A   Overcast
10:55 AM 8.6 °F 0.1 °F 5.0 °F 85% 29.49 in 1.2 mi NNW 4.6 mph - N/A   Overcast
11:15 AM 10.4 °F 2.2 °F 6.8 °F 85% 29.50 in 1.0 mi NW 4.6 mph - N/A   Overcast
11:35 AM 10.4 °F -3.3 °F 8.6 °F 92% 29.50 in 1.0 mi NNW 10.4 mph - N/A   Overcast
11:55 AM 12.2 °F -1.0 °F 8.6 °F 85% 29.51 in 1.0 mi NNW 10.4 mph 18.4 mph N/A   Overcast
12:15 PM 12.2 °F -3.7 °F 8.6 °F 85% 29.50 in 1.8 mi NW 15.0 mph 19.6 mph N/A   Overcast
12:35 PM 12.2 °F -4.3 °F 8.6 °F 85% 29.51 in 2.5 mi NW 16.1 mph 20.7 mph N/A   Overcast
12:55 PM 12.2 °F -2.5 °F 8.6 °F 85% 29.52 in 1.2 mi NW 12.7 mph - N/A   Overcast
1:15 PM 12.2 °F -4.8 °F 10.4 °F 92% 29.52 in 1.2 mi NW 17.3 mph 21.9 mph N/A   Overcast
1:35 PM 14.0 °F -3.0 °F 10.4 °F 86% 29.52 in 0.8 mi NW 18.4 mph 21.9 mph N/A   Overcast
1:55 PM 12.2 °F -2.5 °F 10.4 °F 92% 29.53 in 0.8 mi NW 12.7 mph - N/A   Overcast
2:15 PM 12.2 °F -1.8 °F 10.4 °F 92% 29.54 in 0.5 mi NW 11.5 mph - N/A   Overcast
2:35 PM 14.0 °F -2.5 °F 10.4 °F 86% 29.55 in 0.8 mi NW 17.3 mph - N/A   Overcast
2:55 PM 12.2 °F -1.0 °F 10.4 °F 92% 29.56 in 1.0 mi NW 10.4 mph 16.1 mph N/A   Overcast
3:15 PM 14.0 °F -2.5 °F 10.4 °F 86% 29.57 in 1.0 mi NW 17.3 mph 20.7 mph N/A   Overcast
3:35 PM 12.2 °F -3.7 °F 10.4 °F 92% 29.57 in 0.8 mi NNW 15.0 mph - N/A   Overcast
3:55 PM 12.2 °F -3.1 °F 10.4 °F 92% 29.59 in 0.5 mi NW 13.8 mph 19.6 mph N/A   Overcast
4:15 PM 12.2 °F -3.1 °F 10.4 °F 92% 29.60 in 0.8 mi NNW 13.8 mph 18.4 mph N/A   Overcast
4:35 PM 12.2 °F -1.8 °F 10.4 °F 92% 29.61 in 1.0 mi NW 11.5 mph - N/A   Overcast
4:55 PM 12.2 °F -3.1 °F 10.4 °F 92% 29.62 in 1.0 mi NNW 13.8 mph - N/A   Overcast
5:15 PM 12.2 °F -1.8 °F 10.4 °F 92% 29.63 in 1.0 mi NW 11.5 mph 17.3 mph N/A   Overcast
5:35 PM 12.2 °F -1.0 °F 10.4 °F 92% 29.64 in 0.8 mi NW 10.4 mph - N/A   Overcast
5:55 PM 12.2 °F 0.7 °F 10.4 °F 92% 29.65 in 0.8 mi NW 8.1 mph - N/A   Overcast
6:15 PM 12.2 °F -0.2 °F 10.4 °F 92% 29.66 in 1.0 mi NW 9.2 mph - N/A   Overcast
6:35 PM 12.2 °F 2.9 °F 10.4 °F 92% 29.67 in 1.2 mi NNW 5.8 mph - N/A   Overcast
6:55 PM 12.2 °F 1.7 °F 10.4 °F 92% 29.68 in 1.0 mi North 6.9 mph - N/A   Overcast
7:15 PM 10.4 °F 0.8 °F 8.6 °F 92% 29.69 in 1.5 mi North 5.8 mph - N/A   Overcast
7:35 PM 8.6 °F -4.7 °F 6.8 °F 92% 29.69 in 1.5 mi North 9.2 mph - N/A   Overcast
7:55 PM 8.6 °F -1.3 °F 6.8 °F 92% 29.70 in 3.0 mi North 5.8 mph - N/A   Overcast
8:15 PM 8.6 °F 0.1 °F 6.8 °F 92% 29.71 in 5.0 mi NNW 4.6 mph - N/A   Overcast
8:35 PM 8.6 °F -1.3 °F 6.8 °F 92% 29.72 in 5.0 mi North 5.8 mph - N/A   Overcast
8:55 PM 6.8 °F -2.0 °F 6.8 °F 100% 29.73 in 8.0 mi North 4.6 mph - N/A   Overcast
9:15 PM 6.8 °F -3.5 °F 5.0 °F 92% 29.73 in 10.0 mi North 5.8 mph - N/A   Overcast
9:35 PM 6.8 °F -5.9 °F 3.2 °F 85% 29.74 in 10.0 mi North 8.1 mph - N/A   Overcast
9:55 PM 6.8 °F -0.1 °F 3.2 °F 85% 29.75 in 9.0 mi North 3.5 mph - N/A   Overcast
10:15 PM 5.0 °F -2.1 °F 3.2 °F 92% 29.76 in 9.0 mi North 3.5 mph - N/A   Overcast
10:35 PM 5.0 °F -2.1 °F 1.4 °F 85% 29.76 in 9.0 mi North 3.5 mph - N/A   Overcast
10:55 PM 3.2 °F - 1.4 °F 92% 29.77 in 10.0 mi Calm Calm - N/A   Overcast
11:15 PM 3.2 °F - 1.4 °F 92% 29.77 in 10.0 mi Calm Calm - N/A   Overcast
11:35 PM 3.2 °F -4.2 °F 1.4 °F 92% 29.78 in 10.0 mi North 3.5 mph - N/A   Overcast
11:55 PM 3.2 °F - 1.4 °F 92% 29.79 in 10.0 mi Calm Calm - N/A   Overcast